Regional Weather Roundup
Issued by NWS

Home | Current Version | Previous Version | Graphics & Text | Print | Product List | Glossary On
Versions: 1 2 3 4 5 6 7 8 9 10 11 12 13 14 15 16 17 18 19 20 21 22 23 24 25 26 27 28 29 30 31 32 33 34 35 36 37 38 39 40 41 42 43 44 45 46 47 48 49 50
000
ASUS43 KDTX 281901
RWRMI
MICHIGAN HOURLY REGIONAL WEATHER ROUNDUP
NATIONAL WEATHER SERVICE DETROIT/PONTIAC MI
300 PM EDT MON JUL 28 2014

NOTE: "FAIR" INDICATES FEW OR NO CLOUDS BELOW 12,000 FEET WITH NO
SIGNIFICANT WEATHER AND/OR OBSTRUCTION TO VISIBILITY.

MIZ047>049-052>055-059>063-066>070-074>076-081>083-282000-
SOUTHEAST LOWER MICHIGAN

CITY           SKY/WX    TMP DP  RH WIND       PRES   REMARKS
ADRIAN         PTSUNNY   70  52  52 N8G20     29.94S
ALMA           CLOUDY    65  48  54 N10       29.97S
ANN ARBOR      CLOUDY    68  51  54 N10       29.94R
BAD AXE        CLOUDY    58  47  66 N17       29.96S
CARO           CLOUDY    64  55  70 N12       29.96R
DETROIT CITY   CLOUDY    68  50  52 N13       29.92S
DETROIT        CLOUDY    68  53  58 N15       29.92S
FLINT          CLOUDY    64  52  64 N13       29.95S
GROSSE ILE     CLOUDY    70  52  52 NW13      29.91R
HILLSDALE      CLOUDY    68  55  64 NW9       29.96S
HOWELL         CLOUDY    64  53  68 NW12      29.95S

CITY           SKY/WX    TMP DP  RH WIND       PRES   REMARKS
JACKSON        PTSUNNY   67  55  65 VRB5      29.95S
LAMBERTVILLE   PTSUNNY   72  50  46 NW10G18   29.93S
LANSING        CLOUDY    65  53  65 N8        29.97S
LAPEER         CLOUDY    62  51  66 N8        29.95S
MASON          CLOUDY    65  52  63 N7        29.96S
MONROE         PTSUNNY   70  54  56 NW12G20   29.91R
MT. CLEMENS    CLOUDY    65  52  64 N13       29.91S
PONTIAC        CLOUDY    63  50  62 N15       29.94R
PORT HOPE        N/A     63  50  62 CALM      29.95S
PORT HURON     CLOUDY    61  50  67 N15G21    29.93F
TRI CITIES     CLOUDY    66  50  56 N17       29.97R
TROY           CLOUDY    65  53  64 N8G18     29.94S
SAGINAW HB     CLOUDY    64  50  59 N15       29.96R
$$
MIZ043>046-050>051-056>058-064>065-071>073-077>080-282000-
SOUTHWEST LOWER MICHIGAN

CITY           SKY/WX    TMP DP  RH WIND       PRES   REMARKS
BATTLE CREEK   MOSUNNY   68  52  56 NW17G24   29.98S
BENTON HARBOR  CLOUDY    59  50  72 N12G24    30.05S
BIG RAPIDS     CLOUDY    61  47  59 N10G20    30.01R
COLDWATER      PTSUNNY   69  55  60 NW8G17    29.97R
FREMONT        MOCLDY    65  45  48 N13       30.01R
HOLLAND        SUNNY     64  53  67 NW13      30.02S
GRAND RAPIDS   PTSUNNY   69  51  52 NW9       29.98S
IONIA          MOCLDY    65  50  58 N13       29.97S
KALAMAZOO      PTSUNNY   66  53  63 N13       30.00S
LUDINGTON      SUNNY     61  49  65 N16G22    30.05R
MARSHALL       PTSUNNY   67  53  61 NW12G17   29.96S
MOUNT PLEASANT MOSUNNY   66  49  54 N10G17    29.98R
MUSKEGON       PTSUNNY   67  49  52 NW16      30.01S
SOUTH HAVEN    PTSUNNY   60  52  76 N12G20    30.04S
$$
MIZ016>042-282000-
NORTHERN LOWER MICHIGAN

CITY           SKY/WX    TMP DP  RH WIND       PRES   REMARKS
ALPENA         CLOUDY    60  46  59 N12       29.98S
BEAVER ISLAND  SUNNY     66  49  54 NW7       30.02S
BELLAIRE       CLOUDY    63  46  52 N8        30.02S
CADILLAC       CLOUDY    59  47  64 N13G21    30.02S
CHARLEVOIX     SUNNY     64  48  56 NW9       30.05S
FRANKFORT      SUNNY     64  46  52 N10       30.06R
GAYLORD        CLOUDY    58  44  60 N8        30.01S
GRAYLING       CLOUDY    60  44  55 N10       30.02S
HARBOR SPRINGS CLOUDY    65  46  50 N8        30.00F
HOUGHTON LAKE  CLOUDY    59  44  57 N10       30.02R
MANISTEE       SUNNY     61  45  55 N16       30.06R
OSCODA         CLOUDY    63  44  50 N14       29.96S
PELLSTON       CLOUDY    65  46  50 NE13      30.01S
ROGERS CITY    PTSUNNY   62  51  67 NW13G18   29.99F
TRAVERSE CITY  MOSUNNY   63  44  50 N13G21    30.03S
$$
MIZ007>008-015-282000-
EASTERN UPPER MICHIGAN

CITY           SKY/WX    TMP DP  RH WIND       PRES   REMARKS
KINROSS        SUNNY     63  45  51 NW16G24   29.99S
MACKINAC ISLAN SUNNY     65  46  50 N8        29.99F
NEWBERRY       MOSUNNY   64  47  55 N13G23    30.01S
S. S. MARIE    MOSUNNY   63  45  51 NW13G24   29.99R
MUNISING         N/A     65  45  48 NW8       30.04F
$$
MIZ004>006-011>014-085-282000-
CENTRAL UPPER MICHIGAN

CITY           SKY/WX    TMP DP  RH WIND       PRES   REMARKS
MANISTIQUE     SUNNY     70  49  47 NW13G20   30.02
ESCANABA       PTSUNNY   68  48  49 N8        30.04S
MENOMINEE      PTSUNNY   66  50  55 S13       30.04F
$$
MIZ001>003-009>011-084-282000-
WESTERN UPPER MICHIGAN

CITY           SKY/WX    TMP DP  RH WIND       PRES   REMARKS
IRON MOUNTAIN  CLOUDY    70  46  42 N13       30.05S
COPPER HARBOR    N/A     66  54  65 N12       30.03F
$$

ABBREVIATIONS USED IN REMARKS
   TC - TEMPERATURE IN CELSIUS
  WCI - WIND CHILL INDEX
   HX - HEAT INDEX
  VSB - VISIBILITY



USA.gov is the U.S. government's official web portal to all federal, state and local government web resources and services.